[[{"header":{"parameterUnit":"m.s-1","parameterCategory":1,"la1":30.2991,"la2":30.254,"lo1":-89.0895,"lo2":-89.0444,"dy":0.0017,"dx":0.0017,"nx":28,"ny":28,"refTime":"2025-08-14T09:00:00:Z","depth":0,"parameterNumber":2,"parameterNumberName":"U-component_of_WINDS"},"data":[0,0,0,0,0,0,0,0,0,0,0,0,0,0,0,0,0,0,0,0,0,0,0,0,0,0,0,0,0,0,0,0,0,0,0,0,0,0,0,0,0,0,0,0,0,0,0,0,0,0,0,0,0,0,0,0,0,0,3.6914,3.6916,0,3.7024,3.7025,3.7027,3.6955,3.6951,3.6948,3.6945,3.7061,3.7067,3.7073,0,0,0,0,0,0,0,0,0,0,0,0,0,3.6644,3.6649,3.6914,3.6916,3.6917,3.7024,3.7026,3.7027,3.6955,3.6951,3.6947,3.6944,3.7059,3.7066,3.7073,0,0,0,0,0,0,0,0,0,0,0,0,0,3.6758,3.6651,3.6914,3.6894,3.6893,3.7024,3.7026,3.7027,3.6956,3.6951,3.6946,3.6942,3.7056,3.7065,3.7074,3.7231,0,0,3.7103,3.7107,0,0,0,0,0,0,0,0,3.6752,3.6768,3.6896,3.6896,3.6895,3.6971,3.6972,3.7096,3.6958,3.6933,3.6945,3.6939,3.7035,3.7046,3.7077,3.7237,3.7242,3.7103,3.7109,3.7113,3.7116,0,0,0,0,0,0,0,3.6744,3.6763,3.6958,3.6898,3.6897,3.688,3.6891,3.6996,3.701,3.6934,3.6929,3.6943,3.7034,3.7068,3.7079,3.7243,3.7103,3.7111,3.7117,3.7121,3.7535,3.754,0,0,0,0,0,0,3.6738,3.6757,3.6954,3.6961,3.681,3.6889,3.6901,3.6952,3.7009,3.7013,3.6947,3.6939,3.7055,3.7069,3.7083,3.7269,3.7113,3.7122,3.7127,3.753,3.7536,3.7542,0,0,0,0,0,0,3.6732,3.6756,3.695,3.6858,3.6881,3.6899,3.6956,3.6956,3.6991,3.7019,3.7021,3.698,3.7052,3.707,3.7194,3.7272,3.7126,3.7134,3.7523,3.7532,3.7539,3.7644,0,0,0,0,0,0,3.6725,3.6754,3.6814,3.686,3.6886,3.7059,3.6961,3.6962,3.7007,3.6997,3.705,3.7054,3.7049,3.7181,3.7204,3.7282,3.7141,3.7516,3.7527,3.7537,3.7633,3.7655,3.7673,0,0,0,0,0,3.6715,3.684,3.6817,3.6842,3.6961,3.7064,3.7079,3.707,3.7013,3.7073,3.7091,3.7052,3.726,3.7194,3.7219,3.7302,3.7511,3.7524,3.7536,3.7625,3.765,3.7672,0,0,0,0,0,0,3.6804,3.6846,3.6821,3.6964,3.7011,3.7051,3.7127,3.7098,3.7162,3.7151,3.7138,3.7151,3.728,3.7304,3.7229,3.7456,3.7377,3.7395,3.7436,3.7461,3.748,3.7471,3.7149,0,0,0,0,0,3.684,3.692,3.6952,3.7075,3.71,3.7109,3.7154,3.7143,3.7191,3.7211,3.7237,3.7286,3.7362,3.7413,3.7485,3.7637,3.7646,3.7706,3.7725,3.7741,3.7757,3.7837,3.7864,3.7583,3.7582,3.7582,0,0,3.6916,3.6949,3.7,3.7094,3.7128,3.7211,3.7127,3.7218,3.7279,3.7225,3.7343,3.7364,3.7418,3.7556,3.7619,3.758,3.7836,3.7757,3.7769,3.7776,3.7853,3.7879,3.7903,3.7591,3.7589,3.7588,0,0,3.7096,3.7129,3.7234,3.7271,3.7324,3.7329,3.7355,3.74,3.7411,3.7529,3.749,3.7563,3.7694,3.7734,3.7771,3.7964,3.7931,3.7988,3.809,3.8169,3.8191,3.8211,3.8278,3.8303,3.8004,3.8004,3.8004,0,3.7184,3.7306,3.7293,3.7386,3.7428,3.7382,3.7488,3.7524,3.7599,3.7629,3.7585,3.7747,3.7781,3.7927,3.7973,3.8006,3.8034,3.7982,3.8189,3.8208,3.8226,3.8291,3.8316,3.801,3.801,3.8009,3.8008,0,3.741,3.7496,3.7574,3.7646,3.7697,3.7797,3.7799,3.7852,3.7837,3.7847,3.7967,3.8005,3.8082,3.8117,3.8103,3.8261,3.8235,3.819,3.811,3.826,3.832,3.8345,3.802,3.8017,3.8015,3.8014,0,0,3.765,3.7711,3.7741,3.7772,3.7826,3.7892,3.799,3.8064,3.811,3.8163,3.8244,3.8356,3.8314,3.8356,3.8346,3.8416,3.8565,3.8362,3.8363,3.8397,3.8739,3.8772,3.88,3.8543,3.8547,3.8551,3.8734,0,3.7832,3.8001,3.7991,3.815,3.8227,3.8184,3.8268,3.8311,3.8323,3.8392,3.8405,3.8484,3.8424,3.8448,3.8515,3.8532,3.8633,3.8519,3.8618,3.8621,3.8604,3.8832,3.8867,3.9038,3.8758,3.8762,3.8765,0,3.8067,3.8126,3.8292,3.8333,3.8365,3.8442,3.8508,3.8574,3.8622,3.8626,3.8672,3.8651,3.8749,3.8667,3.8802,3.8725,3.8764,3.8779,3.8785,3.8794,3.8701,3.8845,3.9093,3.9118,3.8802,3.8799,3.8796,0,3.8223,3.8345,3.8459,3.8487,3.8539,3.8593,3.8617,3.866,3.8705,3.8763,3.8792,3.8862,3.8901,3.8956,3.8953,3.8894,3.909,3.9008,3.9095,3.9096,3.9138,3.9135,3.9394,3.9166,3.9166,3.9165,3.9164,0,3.8427,3.853,3.853,3.86,3.8714,3.8702,3.8815,3.8833,3.8871,3.8944,3.8912,3.8981,3.8974,3.9045,3.9044,3.9155,3.9173,3.9178,3.9177,3.9181,3.918,3.9206,3.9194,3.9172,3.917,3.9169,3.9168,0,3.8621,3.8625,3.8746,3.8785,3.8797,3.8879,3.8911,3.8978,3.8987,3.908,3.9101,3.9115,3.9195,3.9199,3.9292,3.9291,3.9426,3.9412,3.941,3.9407,3.9494,3.9485,3.9777,3.9814,3.9563,3.9566,3.9568,0,3.875,3.8828,3.8874,3.892,3.8947,3.9022,3.9067,3.9058,3.9107,3.9166,3.9225,3.9302,3.9363,3.9494,3.9513,3.9584,3.9571,3.9668,3.9581,3.9582,3.9571,3.9565,3.9573,3.9685,3.9688,3.969,3.9692,0,3.8979,3.8976,3.9042,3.9109,3.9163,3.9216,3.9264,3.9304,3.93,3.9357,3.9438,3.9485,3.9579,3.9656,3.9725,3.975,3.9721,3.9719,3.9743,3.9747,3.9742,3.9745,3.9455,3.9712,3.971,3.9709,3.9708,3.9707,3.9144,3.921,3.9252,3.9326,3.9361,3.9407,3.9471,3.9487,3.9554,3.9629,3.962,3.971,3.9754,3.9843,3.9874,3.9944,3.9911,3.9945,3.9954,3.9963,3.9971,3.9732,3.9957,3.9956,3.9956,3.9955,3.9955,0,3.9369,3.9394,3.9462,3.953,3.9588,3.9554,3.9606,3.9657,3.9736,3.9779,3.9839,3.9932,4.0006,4.003,4.0102,4.0154,4.0142,4.0173,4.0168,4.0174,3.9998,3.9969,4.0181,4.0181,4.0181,4.0181,4.0181,4.0181,3.9493,3.9603,3.9606,3.9733,3.9757,3.9844,3.9876,3.9917,3.9952,4.0056,4.0117,4.0132,4.0167,4.0241,4.0307,4.0312,4.034,4.0376,4.0375,4.021,4.0187,4.0165,4.0138,4.0382,4.0382,4.0546,4.0547,4.0549]},{"header":{"parameterUnit":"m.s-1","parameterCategory":1,"la1":30.2991,"la2":30.254,"lo1":-89.0895,"lo2":-89.0444,"dy":0.0017,"dx":0.0017,"nx":28,"ny":28,"refTime":"2025-08-14T09:00:00:Z","depth":0,"parameterNumber":3,"parameterNumberName":"V-component_of_WINDS"},"data":[0,0,0,0,0,0,0,0,0,0,0,0,0,0,0,0,0,0,0,0,0,0,0,0,0,0,0,0,0,0,0,0,0,0,0,0,0,0,0,0,0,0,0,0,0,0,0,0,0,0,0,0,0,0,0,0,0,0,1.1044,1.1045,0,1.1129,1.113,1.1131,1.1151,1.1151,1.115,1.115,1.1235,1.1238,1.1241,0,0,0,0,0,0,0,0,0,0,0,0,0,1.0894,1.0897,1.1044,1.1045,1.1046,1.1129,1.113,1.1131,1.1151,1.1151,1.115,1.1149,1.1235,1.1238,1.1241,0,0,0,0,0,0,0,0,0,0,0,0,0,1.0967,1.0898,1.1043,1.1066,1.1069,1.1129,1.113,1.1132,1.1151,1.1151,1.115,1.1149,1.1233,1.1238,1.1242,1.1285,0,0,1.1255,1.1257,0,0,0,0,0,0,0,0,1.0963,1.0973,1.1061,1.1064,1.1068,1.1129,1.1109,1.1183,1.1152,1.112,1.1149,1.1148,1.1201,1.1207,1.1225,1.1289,1.1293,1.1255,1.1258,1.1259,1.1261,0,0,0,0,0,0,0,1.0958,1.0969,1.1077,1.1063,1.1066,1.1071,1.108,1.1123,1.1164,1.1123,1.1124,1.1134,1.1202,1.1221,1.1227,1.1294,1.1255,1.1259,1.1261,1.1263,1.1397,1.1398,0,0,0,0,0,0,1.095,1.0965,1.1075,1.108,1.1012,1.1074,1.1084,1.111,1.1164,1.1171,1.1135,1.1135,1.1214,1.1223,1.1231,1.1285,1.1259,1.1263,1.1266,1.1396,1.1397,1.1398,0,0,0,0,0,0,1.0946,1.0959,1.1071,1.1023,1.1038,1.1077,1.1106,1.1112,1.1131,1.1173,1.118,1.1147,1.1214,1.1225,1.1271,1.1288,1.1265,1.1269,1.1395,1.1396,1.1398,1.1393,0,0,0,0,0,0,1.0942,1.0958,1.0976,1.1023,1.104,1.1111,1.1107,1.1114,1.1139,1.114,1.1186,1.1193,1.1214,1.1265,1.1276,1.1293,1.1272,1.1393,1.1395,1.1397,1.1392,1.1394,1.1396,0,0,0,0,0,1.0937,1.0971,1.0976,1.099,1.1063,1.1112,1.1122,1.1146,1.114,1.1158,1.1184,1.1192,1.1284,1.127,1.1282,1.1301,1.1392,1.1395,1.1397,1.1391,1.1394,1.1396,0,0,0,0,0,0,1.0924,1.0978,1.0984,1.1035,1.1069,1.1116,1.1139,1.1148,1.1184,1.1183,1.1211,1.1221,1.1266,1.1288,1.1271,1.1345,1.1338,1.1343,1.1329,1.1332,1.1334,1.1328,1.1276,0,0,0,0,0,1.0927,1.0963,1.1008,1.1048,1.1065,1.1099,1.1121,1.1137,1.1173,1.1187,1.1217,1.1251,1.1287,1.1311,1.1347,1.1395,1.1405,1.1414,1.1416,1.1418,1.1421,1.1447,1.1452,1.1406,1.1406,1.1406,0,0,1.0934,1.0968,1.0989,1.1047,1.1075,1.1111,1.1111,1.1149,1.1176,1.1193,1.1239,1.1261,1.1301,1.1348,1.1371,1.1368,1.1436,1.1421,1.1421,1.1425,1.145,1.1454,1.1458,1.1407,1.1407,1.1407,0,0,1.0965,1.0994,1.1031,1.1059,1.1101,1.1123,1.1132,1.1177,1.1193,1.124,1.1253,1.1284,1.1347,1.1374,1.1397,1.1436,1.1444,1.1447,1.1458,1.1483,1.1487,1.149,1.1503,1.1508,1.1451,1.1451,1.1451,0,1.0968,1.1023,1.1048,1.1086,1.111,1.1127,1.1164,1.1189,1.1241,1.1257,1.1254,1.1332,1.136,1.1414,1.1423,1.1441,1.1451,1.1442,1.1484,1.1488,1.1491,1.1504,1.1509,1.1451,1.1451,1.1451,1.1451,0,1.1024,1.1063,1.1087,1.1137,1.1164,1.1201,1.123,1.1255,1.1267,1.1289,1.1336,1.137,1.1412,1.1426,1.1439,1.1481,1.1478,1.1479,1.1472,1.1495,1.1508,1.1513,1.1451,1.1451,1.1451,1.1451,0,0,1.1051,1.1113,1.1122,1.1144,1.1192,1.1221,1.1258,1.13,1.132,1.1355,1.1386,1.1438,1.1439,1.1464,1.1479,1.1501,1.1529,1.15,1.1501,1.1504,1.1577,1.1576,1.1581,1.1535,1.1536,1.1537,1.1573,0,1.1087,1.1155,1.1178,1.1233,1.1268,1.1284,1.1316,1.1348,1.1369,1.1401,1.1424,1.146,1.1459,1.1474,1.1496,1.1521,1.1544,1.1519,1.1563,1.1564,1.1553,1.1588,1.1587,1.162,1.1578,1.1579,1.158,0,1.1139,1.1175,1.1234,1.1276,1.1291,1.132,1.136,1.139,1.1426,1.144,1.1467,1.1481,1.1519,1.151,1.1561,1.1544,1.1563,1.1577,1.1579,1.1584,1.1574,1.1594,1.1632,1.1636,1.1588,1.1588,1.1587,0,1.1152,1.1214,1.1258,1.1276,1.1327,1.1346,1.1368,1.1403,1.1426,1.1461,1.1476,1.1514,1.1535,1.1563,1.1586,1.1578,1.1636,1.1629,1.1648,1.1647,1.166,1.1658,1.1701,1.1672,1.1672,1.1672,1.1672,0,1.119,1.1225,1.1264,1.129,1.133,1.1355,1.1393,1.1416,1.1447,1.1477,1.1493,1.152,1.1549,1.1581,1.1599,1.1638,1.1648,1.1659,1.1663,1.1658,1.1656,1.1671,1.1669,1.1673,1.1673,1.1673,1.1672,0,1.1211,1.1238,1.1286,1.133,1.1342,1.1369,1.1406,1.1431,1.1453,1.1491,1.1501,1.1534,1.1572,1.1598,1.1646,1.1658,1.17,1.1705,1.1689,1.1691,1.1708,1.1706,1.1761,1.1769,1.1735,1.1735,1.1735,0,1.1234,1.1261,1.1308,1.1329,1.1351,1.1386,1.141,1.1435,1.1459,1.1502,1.1522,1.1561,1.1593,1.1652,1.168,1.1716,1.1721,1.1738,1.1727,1.172,1.1721,1.1719,1.1721,1.174,1.174,1.174,1.174,0,1.1271,1.1283,1.1317,1.1356,1.1384,1.1416,1.1447,1.1464,1.1495,1.1521,1.156,1.1585,1.1633,1.1671,1.171,1.1731,1.174,1.1743,1.175,1.1744,1.1733,1.1739,1.1693,1.1742,1.1742,1.1742,1.1742,1.1742,1.1293,1.1318,1.1354,1.1392,1.1418,1.1447,1.1473,1.1498,1.1531,1.1573,1.1586,1.1626,1.1659,1.1713,1.1734,1.1765,1.1764,1.1773,1.1775,1.1777,1.1776,1.1728,1.1772,1.1772,1.1772,1.1772,1.1772,0,1.1331,1.1355,1.1389,1.1433,1.1462,1.1468,1.1503,1.1527,1.1562,1.1593,1.1625,1.1668,1.1705,1.1735,1.1772,1.1791,1.1796,1.18,1.1799,1.1803,1.1776,1.1767,1.1795,1.1795,1.1795,1.1795,1.1795,1.1795,1.1354,1.1396,1.1412,1.1467,1.149,1.153,1.1549,1.1576,1.1601,1.1649,1.168,1.1699,1.1729,1.1769,1.1802,1.181,1.1823,1.1825,1.1834,1.1808,1.1805,1.1803,1.1794,1.1828,1.1828,1.1859,1.1859,1.1859]}]]